Home   Weather   Swanage   Past weeks

Flag for United Kingdom Past Weather in Swanage, England, United Kingdom — Yesterday and Last 2 Weeks

Now
64 °F

Partly sunny.


Feels Like: 64 °F
Forecast: 61 / 72 °F
Wind: 5 mph from West

Location: Bournemouth Airport

Current Time: Aug 21, 2017 at 9:30:53 am

Latest Report: Aug 21, 2017 at 8:20 am


Visibility: N/A

Pressure: 30.15 "Hg

Humidity: 100%

Dew Point: 64 °F

Location of SwanageLocation

Past Weather in Swanage — Graph

°F

Swanage Temperature Yesterday

Maximum temperature yesterday: 66 °F (at 12:20 pm)
Minimum temperature yesterday: 45 °F (at 5:50 am)
Average temperature yesterday: 59 °F

High & Low Weather Summary for the Past Weeks

 TemperatureHumidityPressure
High73 °F (Aug 10, 10:50 am)100% (Aug 6, 7:20 am)30.24 "Hg (Aug 6, 7:20 am)
Low45 °F (Aug 20, 5:50 am)41% (Aug 13, 10:50 am)29.83 "Hg (Aug 17, 5:50 am)
Average63 °F76%30.06 "Hg
* Reported Aug 6 7:20 am — Aug 21 7:50 am, Swanage. Weather by CustomWeather, © 2017

Note: Actual official high and low records may vary slightly from our data, if they occured in-between our weather recording intervals... More about our weather records

Advertising

Swanage Weather History for the Previous 24 Hours

Scroll right to see more
 ConditionsComfort  
Time TempWeatherWind HumidityBarometerVisibility
7:50 am
Mon, Aug 21
64 °FPartly sunny.5 mph100%30.15 "HgN/A
7:20 am64 °FPartly sunny.3 mph94%30.12 "Hg6 mi
6:50 am63 °FPartly sunny.3 mph100%30.12 "Hg5 mi
6:20 am63 °FPartly sunny.2 mph100%30.12 "Hg5 mi
5:50 am63 °FPassing clouds.2 mph100%30.12 "Hg5 mi
11:50 pm
Sun, Aug 20
61 °FPassing clouds.6 mph100%30.12 "HgN/A
11:20 pm61 °FRain. Passing clouds.7 mph100%30.15 "HgN/A
10:50 pm61 °FRain. Fog.7 mph94%30.15 "Hg3 mi
10:20 pm59 °FDrizzle. Fog.8 mph100%30.15 "Hg2 mi
9:50 pm59 °FPassing clouds.9 mph94%30.18 "Hg4 mi
9:20 pm59 °FPassing clouds.9 mph94%30.18 "Hg4 mi
8:50 pm59 °FPassing clouds.13 mph94%30.18 "Hg5 mi
8:20 pm59 °FPassing clouds.8 mph94%30.18 "Hg4 mi
7:50 pm59 °FDrizzle. Fog.8 mph94%30.18 "Hg3 mi
7:20 pm59 °FDrizzle. Partly sunny.8 mph94%30.18 "HgN/A
6:50 pm59 °FScattered clouds.9 mph88%30.18 "HgN/A
6:20 pm59 °FBroken clouds.9 mph88%30.21 "HgN/A
5:50 pm59 °FLight rain. Broken clouds.8 mph94%30.21 "HgN/A
5:20 pm59 °FRain. Broken clouds.5 mph94%30.21 "Hg4 mi
4:50 pm61 °FPartly sunny.7 mph83%30.21 "Hg4 mi
4:20 pm63 °FPartly sunny.9 mph68%30.24 "HgN/A
3:50 pm63 °FScattered clouds.7 mph73%30.24 "HgN/A
3:20 pm63 °FScattered clouds.10 mph73%30.24 "HgN/A
2:50 pm61 °FLight rain. Scattered clouds.13 mph83%30.24 "HgN/A
1:50 pm64 °FScattered clouds.12 mph60%30.24 "HgN/A
1:20 pm66 °FScattered clouds.10 mph64%30.24 "HgN/A
12:50 pm66 °FScattered clouds.12 mph64%30.24 "HgN/A
12:20 pm66 °FScattered clouds.15 mph64%30.24 "HgN/A
11:50 am63 °FScattered clouds.9 mph77%30.24 "HgN/A
11:20 am63 °FScattered clouds.9 mph73%30.24 "HgN/A
10:50 am64 °FScattered clouds.8 mph64%30.24 "HgN/A
10:20 am64 °FScattered clouds.8 mph68%30.24 "HgN/A
9:50 am63 °FSunny.6 mph77%30.24 "Hg10 mi
9:20 am59 °FSunny.3 mph82%30.24 "Hg10 mi
Weather by CustomWeather, © 2017

See weather overviewHow to use our weather pages